Flag for Angola Weather past 2 weeks in Cabinda, Angola

Now
79 °F

Scattered clouds.


Feels Like: 82 °F
Forecast: 73 / 79 °F
Wind: 14 mph from West

Location: Pointe Airport-Noire

Current Time: Sep 30, 2014 at 7:23:59 PM

Latest Report: Sep 30, 2014 at 6:00 PM


Visibility: 5 mi

Pressure: 29.89 "Hg

Humidity: 79%

Dew point: 72 °F

Location of CabindaLocation

Historic Weather in Cabinda — Graph

°F

Cabinda temperature yesterday

Maximum temperature yesterday: 81 °F (at 10:00 AM)
Minimum temperature yesterday: 73 °F (at 3:00 AM)
Average temperature yesterday: 77 °F

Past Weeks' High & Low Weather Summary

 TemperatureHumidityPressure
High82 °F (Sep 20, 1:00 PM)100% (Sep 19, 5:00 AM)30.01 "Hg (Sep 19, 5:00 AM)
Low72 °F (Sep 16, 6:00 AM)62% (Sep 27, 2:00 PM)29.83 "Hg (Sep 22, 4:00 PM)
Average76 °F84%29.93 "Hg
* Reported Sep 15 6:00 PM — Sep 30 6:00 PM, Cabinda, Weather by CustomWeather, © 2014

Note: Actual official high and low records may vary slightly from our data, if they occured in-between our weather recording intervals... More about our weather records

Advertising

Cabinda weather history for previous 24 hours

 ConditionsComfort  
Time TempWeatherWind HumidityBarometerVisibility
6:00 PM
Sep 30
79 °FScattered clouds.14 mph79%29.89 "Hg5 mi
5:00 PM81 °FScattered clouds.12 mph66%29.86 "HgN/A
4:00 PM82 °FScattered clouds.14 mph62%29.86 "HgN/A
3:00 PM82 °FBroken clouds.14 mph62%29.86 "HgN/A
2:00 PM81 °FBroken clouds.12 mph74%29.89 "HgN/A
1:00 PM81 °FPartly sunny.12 mph74%29.92 "HgN/A
12:00 PM79 °FDrizzle. Mostly cloudy.12 mph84%29.95 "Hg5 mi
11:00 AM79 °FMostly cloudy.9 mph79%29.95 "Hg5 mi
10:00 AM79 °FMostly cloudy.9 mph79%29.98 "Hg4 mi
9:00 AM77 °FMostly cloudy.9 mph83%29.95 "Hg5 mi
8:00 AM77 °FMostly cloudy.9 mph83%29.95 "Hg4 mi
7:00 AM75 °FBroken clouds.7 mph89%29.92 "Hg4 mi
6:00 AM75 °FMore clouds than sun.7 mph89%29.92 "Hg4 mi
5:00 AM75 °FMostly cloudy.7 mph89%29.89 "Hg4 mi
4:00 AM75 °FMostly cloudy.5 mph83%29.89 "Hg4 mi
3:00 AM75 °FMostly cloudy.7 mph83%29.89 "Hg4 mi
2:00 AM75 °FPassing clouds.5 mph83%29.92 "Hg4 mi
1:00 AM75 °FPassing clouds.5 mph83%29.92 "Hg4 mi
12:00 AM75 °FPassing clouds.7 mph83%29.95 "Hg5 mi
11:00 PM
Sep 29
75 °FPassing clouds.7 mph83%29.95 "Hg5 mi
10:00 PM77 °FPassing clouds.7 mph79%29.95 "Hg5 mi
9:00 PM77 °FPassing clouds.7 mph79%29.92 "HgN/A
8:00 PM77 °FPartly cloudy.9 mph83%29.89 "HgN/A
7:00 PM77 °FPassing clouds.7 mph79%29.89 "HgN/A
Weather by CustomWeather, © 2014

See weather overviewHow to use our weather pages